Kelowna, British Columbia

3:10 AM PDT on March 25, 2017 (GMT -0700)
Kelowna

Weather History for CYLW - November, 2013

Change the Weather History Date:

Tuesday, November 26, 2013

  Actual Average Record
Temperature  
Mean Temperature 30 °F -  
Max Temperature 37 °F 37 °F 51 °F (1998)
Min Temperature 23 °F 25 °F 5 °F (2015)
Degree Days  
Heating Degree Days 35    
Moisture  
Dew Point 26 °F    
Average Humidity 88    
Maximum Humidity 100    
Minimum Humidity 69    
Precipitation  
Precipitation 0.00 in - - ()
Sea Level Pressure  
Sea Level Pressure 30.34 in    
Wind  
Wind Speed 2 mph ()    
Max Wind Speed 6 mph    
Max Gust Speed -    
Visibility 9.1 miles    
Events      
Averages and records for this station are not official NWS values.
T = Trace of Precipitation, MM = Missing Value Source: Averaged Metar Reports

Daily Weather History Graph

Daily Weather History Graph

Search for Another Location

Airport or City:

Trip Planner

Search our weather history database for the weather conditions in past years. The results will help you decide how hot, cold, wet, or windy it might be!

Date:

Astronomy

Nov. 26, 2013 Rise Set
Actual Time 7:27 AM PST 4:01 PM PST
Civil Twilight 6:50 AM PST 4:38 PM PST
Nautical Twilight 6:10 AM PST 5:19 PM PST
Astronomical Twilight 5:31 AM PST 5:57 PM PST
Moon No Moon Rise 12:45 PM PST (11/26)
Length of Visible Light 9h 47m
Length of Day
8h 34m
Last Quarter, 40% of the Moon is Illuminated
Nov 26
Last Quarter
Dec 2
New
Dec 9
First Quarter
Dec 17
Full
Dec 25
Last Quarter

Hourly Weather History & Observations

Time (PST) Temp. Windchill Dew Point Humidity Pressure Visibility Wind Dir Wind Speed Gust Speed Precip Events Conditions
12:00 AM 24.8 °F - 23.0 °F 93% 30.45 in 9.0 mi Calm Calm - N/A   Mostly Cloudy
1:00 AM 24.8 °F - 24.8 °F 100% 30.44 in 9.0 mi Variable 2.3 mph - N/A   Mostly Cloudy
2:00 AM 24.8 °F - 23.0 °F 93% 30.43 in 9.0 mi North 2.3 mph - N/A   Overcast
3:00 AM 24.8 °F - 23.0 °F 93% 30.42 in 9.0 mi NNE 2.3 mph - N/A   Overcast
4:00 AM 25 °F - 24 °F 92% 30.40 in 10 mi North 5.8 mph - -  
4:00 AM 24.8 °F 19.1 °F 23.0 °F 93% 30.40 in 9.0 mi North 4.6 mph - N/A   Mostly Cloudy
5:00 AM 26.6 °F - 26.6 °F 100% 30.39 in 9.0 mi Calm Calm - N/A   Mostly Cloudy
6:00 AM 24.8 °F - 24.8 °F 100% 30.39 in 9.0 mi NNE 2.3 mph - N/A   Overcast
7:00 AM 24.8 °F - 24.8 °F 100% 30.39 in 9.0 mi Variable 2.3 mph - N/A   Mostly Cloudy
8:00 AM 26.6 °F 22.6 °F 24.8 °F 93% 30.38 in 9.0 mi East 3.5 mph - N/A   Clear
9:00 AM 28.4 °F - 26.6 °F 93% 30.38 in 9.0 mi Calm Calm - N/A   Clear
10:00 AM 32 °F - 29 °F 83% 30.36 in 10 mi South 2.3 mph - -  
10:00 AM 32.0 °F - 28.4 °F 87% 30.36 in 9.0 mi Calm Calm - N/A   Clear
11:00 AM 35.6 °F 30.7 °F 28.4 °F 75% 30.34 in 9.0 mi South 5.8 mph - N/A   Clear
12:00 PM 35.6 °F 30.7 °F 28.4 °F 75% 30.32 in 9.0 mi South 5.8 mph - N/A   Clear
1:00 PM 37.4 °F 34.9 °F 28.4 °F 70% 30.30 in 9.0 mi South 3.5 mph - N/A   Clear
2:00 PM 37.4 °F 33.8 °F 28.4 °F 70% 30.28 in 9.0 mi South 4.6 mph - N/A   Clear
3:00 PM 35.6 °F 31.7 °F 28.4 °F 75% 30.28 in 9.0 mi SSE 4.6 mph - N/A   Mostly Cloudy
4:00 PM 34 °F - 28 °F 69% 30.29 in 10 mi ESE 2.3 mph - -  
4:00 PM 33.8 °F - 28.4 °F 81% 30.28 in 9.0 mi ESE 2.3 mph - N/A   Mostly Cloudy
5:00 PM 30.2 °F - 26.6 °F 86% 30.28 in 9.0 mi NE 2.3 mph - N/A   Mostly Cloudy
6:00 PM 28.4 °F - 26.6 °F 93% 30.28 in 9.0 mi Variable 2.3 mph - N/A   Scattered Clouds
7:00 PM 28.4 °F - 24.8 °F 86% 30.27 in 9.0 mi Calm Calm - N/A   Scattered Clouds
8:00 PM 24.8 °F 20.5 °F 23.0 °F 93% 30.27 in 9.0 mi NE 3.5 mph - N/A   Clear
9:00 PM 26.6 °F 21.2 °F 26.6 °F 100% 30.27 in 9.0 mi NE 4.6 mph - N/A   Scattered Clouds
10:00 PM 29 °F - 27 °F 87% 30.28 in 10 mi NNE 2.3 mph - -   Overcast
10:00 PM 28.4 °F - 26.6 °F 93% 30.28 in 9.0 mi NE 2.3 mph - N/A   Overcast
11:00 PM 30.2 °F 26.7 °F 28.4 °F 93% 30.28 in 9.0 mi NNW 3.5 mph - N/A   Overcast